RYR241F LICC-LIBD

Flight info

Callsign RYR241F
Flight time 0h 41m
Altitude 32000
Route PEKOD DCT NILTO DCT BUMOK
Aircraft B38M/M-SDE1FGHILORVWXY/HB1

Departure

Time 2026-05-06 19:33
Airport Catania-Fontanarossa Airport (LICC)

Arrival

Time 2026-05-06 20:15
Airport Bari Karol Wojtyła International Airport (LIBD)
Time Latitude Longitude Altitude Speed Heading
2026-05-06 19:15 37.46918 15.06267 37 ft 0 kts 316°
2026-05-06 19:26 37.46909 15.06277 36 ft 2 kts 315°
2026-05-06 19:27 37.46899 15.06290 36 ft 2 kts 316°
2026-05-06 19:27 37.46888 15.06303 36 ft 2 kts 315°
2026-05-06 19:27 37.46877 15.06317 35 ft 2 kts 316°
2026-05-06 19:27 37.46866 15.06330 35 ft 2 kts 316°
2026-05-06 19:28 37.46855 15.06344 35 ft 2 kts 316°
2026-05-06 19:28 37.46845 15.06356 35 ft 2 kts 316°
2026-05-06 19:28 37.46833 15.06370 34 ft 1 kts 316°
2026-05-06 19:28 37.46827 15.06378 34 ft 2 kts 302°
2026-05-06 19:29 37.46823 15.06393 34 ft 0 kts 263°
2026-05-06 19:29 37.46825 15.06401 34 ft 1 kts 257°
2026-05-06 19:29 37.46825 15.06404 34 ft 0 kts 258°
2026-05-06 19:31 37.46820 15.06359 34 ft 11 kts 262°
2026-05-06 19:31 37.46805 15.06204 37 ft 24 kts 264°
2026-05-06 19:31 37.46761 15.05643 50 ft 33 kts 265°
2026-05-06 19:32 37.46651 15.05473 52 ft 27 kts 170°
2026-05-06 19:32 37.46584 15.05623 49 ft 23 kts 69°
2026-05-06 19:32 37.46623 15.05946 42 ft 67 kts 84°
2026-05-06 19:32 37.46696 15.06824 29 ft 133 kts 84°
2026-05-06 19:33 37.46817 15.08209 61 ft 179 kts 83°
2026-05-06 19:33 37.46968 15.09809 595 ft 192 kts 83°
2026-05-06 19:33 37.47137 15.11456 1398 ft 199 kts 83°
2026-05-06 19:33 37.47362 15.13229 2066 ft 214 kts 82°
2026-05-06 19:34 37.47629 15.15138 2731 ft 230 kts 82°
2026-05-06 19:34 37.47915 15.17179 3438 ft 247 kts 82°
2026-05-06 19:34 37.48216 15.19348 4188 ft 261 kts 82°
2026-05-06 19:34 37.48533 15.21626 5085 ft 269 kts 82°
2026-05-06 19:35 37.48853 15.23915 5998 ft 275 kts 82°
2026-05-06 19:35 37.49189 15.26310 6880 ft 282 kts 82°
2026-05-06 19:35 37.49531 15.28740 7743 ft 288 kts 82°
2026-05-06 19:35 37.49974 15.31197 8588 ft 296 kts 72°
2026-05-06 19:36 37.51055 15.33428 9389 ft 307 kts 45°
2026-05-06 19:36 37.52840 15.34929 10252 ft 313 kts 24°
2026-05-06 19:36 37.54890 15.36023 10730 ft 330 kts 21°
2026-05-06 19:36 37.57078 15.37149 11045 ft 353 kts 22°
2026-05-06 19:37 37.59399 15.38462 11393 ft 374 kts 24°
2026-05-06 19:37 37.61787 15.39914 11688 ft 394 kts 25°
2026-05-06 19:37 37.64330 15.41514 11982 ft 413 kts 25°
2026-05-06 19:37 37.66924 15.43163 12462 ft 425 kts 25°
2026-05-06 19:38 37.69566 15.44825 13048 ft 432 kts 24°
2026-05-06 19:38 37.72384 15.46298 13621 ft 438 kts 15°
2026-05-06 19:38 37.75341 15.47102 14377 ft 436 kts
2026-05-06 19:38 37.78352 15.47415 15000 ft 439 kts 359°
2026-05-06 19:39 37.81457 15.47476 15665 ft 442 kts 356°
2026-05-06 19:39 37.84507 15.47468 16280 ft 446 kts 356°
2026-05-06 19:39 37.87611 15.47490 16902 ft 449 kts 357°
2026-05-06 19:39 37.90729 15.47577 17728 ft 447 kts 358°
2026-05-06 19:40 37.93856 15.47720 18192 ft 454 kts 359°
2026-05-06 19:40 37.97034 15.47908 18816 ft 456 kts 359°
2026-05-06 19:40 38.00226 15.48119 19322 ft 461 kts 359°
2026-05-06 19:40 38.03412 15.48339 19902 ft 463 kts 360°
2026-05-06 19:41 38.06630 15.48564 20490 ft 464 kts 360°
2026-05-06 19:41 38.09885 15.48789 21036 ft 467 kts 360°
2026-05-06 19:41 38.13145 15.49013 21506 ft 471 kts 360°
2026-05-06 19:41 38.16425 15.49236 22023 ft 473 kts 360°
2026-05-06 19:42 38.19682 15.49456 22429 ft 478 kts 360°
2026-05-06 19:42 38.22994 15.49681 22953 ft 479 kts 360°
2026-05-06 19:42 38.26352 15.49907 23380 ft 483 kts 360°
2026-05-06 19:42 38.29718 15.50134 23838 ft 486 kts 360°
2026-05-06 19:43 38.33088 15.50360 24265 ft 489 kts
2026-05-06 19:43 38.36485 15.50588 24774 ft 490 kts
2026-05-06 19:43 38.39903 15.50819 25120 ft 495 kts 360°
2026-05-06 19:43 38.43356 15.51052 25597 ft 497 kts
2026-05-06 19:44 38.46791 15.51286 26044 ft 499 kts
2026-05-06 19:44 38.50274 15.51527 26488 ft 501 kts
2026-05-06 19:44 38.53781 15.51771 27065 ft 500 kts
2026-05-06 19:44 38.57222 15.52006 27700 ft 498 kts
2026-05-06 19:45 38.60667 15.52243 28392 ft 494 kts
2026-05-06 19:45 38.64103 15.52478 29068 ft 491 kts
2026-05-06 19:45 38.67503 15.52705 29669 ft 489 kts
2026-05-06 19:45 38.70898 15.52929 30166 ft 489 kts
2026-05-06 19:46 38.74258 15.53148 30644 ft 490 kts
2026-05-06 19:46 38.77674 15.53375 31022 ft 492 kts
2026-05-06 19:46 38.81129 15.53610 31537 ft 492 kts 360°
2026-05-06 19:46 38.84510 15.53843 31968 ft 492 kts 360°
2026-05-06 19:47 38.91349 15.54320 31992 ft 486 kts 360°
2026-05-06 19:47 38.98069 15.54799 31990 ft 482 kts 360°
2026-05-06 19:48 39.04774 15.55256 31991 ft 485 kts 360°
2026-05-06 19:48 39.11517 15.55712 31996 ft 485 kts 360°
2026-05-06 19:49 39.18284 15.56180 32002 ft 485 kts 359°
2026-05-06 19:49 39.25052 15.56640 31999 ft 492 kts 360°
2026-05-06 19:50 39.31909 15.57112 32001 ft 493 kts 360°
2026-05-06 19:50 39.38707 15.57582 32002 ft 490 kts 360°
2026-05-06 19:51 39.45555 15.58054 32003 ft 491 kts 359°
2026-05-06 19:51 39.52412 15.58522 32004 ft 492 kts 359°
2026-05-06 19:52 39.59223 15.58997 32006 ft 490 kts 359°
2026-05-06 19:52 39.66078 15.59482 32005 ft 492 kts 360°
2026-05-06 19:53 39.72890 15.59962 32004 ft 493 kts 359°
2026-05-06 19:53 39.79741 15.60446 32010 ft 492 kts 359°
2026-05-06 19:54 39.87278 15.60978 32016 ft 492 kts 359°
2026-05-06 19:54 39.94148 15.61462 32022 ft 493 kts 359°
2026-05-06 19:55 40.01031 15.61945 32025 ft 492 kts 359°
2026-05-06 19:55 40.07874 15.62429 32030 ft 492 kts 359°
2026-05-06 19:56 40.14698 15.62914 32035 ft 494 kts 359°
2026-05-06 19:56 40.21609 15.63389 32040 ft 493 kts 359°
2026-05-06 19:57 40.28448 15.63853 32041 ft 493 kts 359°
2026-05-06 19:57 40.35349 15.64314 32043 ft 494 kts 359°
2026-05-06 19:58 40.42236 15.64837 32052 ft 494 kts 359°
2026-05-06 19:58 40.49138 15.65362 32057 ft 497 kts 360°
2026-05-06 19:59 40.56004 15.65882 32056 ft 496 kts
2026-05-06 19:59 40.62896 15.67264 32053 ft 500 kts 14°
2026-05-06 20:00 40.66115 15.69002 32059 ft 504 kts 26°
2026-05-06 20:00 40.69056 15.71555 32054 ft 510 kts 38°
2026-05-06 20:00 40.73757 15.78481 32051 ft 508 kts 57°
2026-05-06 20:01 40.76989 15.86628 31729 ft 500 kts 68°
2026-05-06 20:01 40.78262 15.90843 31021 ft 499 kts 70°
2026-05-06 20:01 40.79454 15.95204 30116 ft 502 kts 71°
2026-05-06 20:02 40.80580 15.99524 29163 ft 506 kts 72°
2026-05-06 20:02 40.81717 16.03930 28110 ft 511 kts 72°
2026-05-06 20:02 40.82882 16.08413 26970 ft 517 kts 71°
2026-05-06 20:02 40.84068 16.12925 25759 ft 524 kts 71°
2026-05-06 20:03 40.85284 16.17483 24535 ft 529 kts 71°
2026-05-06 20:03 40.86496 16.21975 23663 ft 520 kts 71°
2026-05-06 20:03 40.87703 16.26425 22951 ft 502 kts 71°
2026-05-06 20:03 40.88849 16.30639 22228 ft 495 kts 71°
2026-05-06 20:04 40.90016 16.34940 21410 ft 493 kts 71°
2026-05-06 20:04 40.91165 16.39187 20583 ft 491 kts 71°
2026-05-06 20:04 40.92293 16.43364 19750 ft 490 kts 71°
2026-05-06 20:04 40.93432 16.47593 18883 ft 484 kts 71°
2026-05-06 20:05 40.94542 16.51726 18050 ft 471 kts 71°
2026-05-06 20:05 40.95614 16.55728 17607 ft 457 kts 71°
2026-05-06 20:05 40.96663 16.59646 16980 ft 451 kts 71°
2026-05-06 20:05 40.97702 16.63544 15882 ft 448 kts 71°
2026-05-06 20:06 40.98708 16.67319 14982 ft 440 kts 72°
2026-05-06 20:06 40.99725 16.71139 13899 ft 435 kts 72°
2026-05-06 20:06 41.00706 16.74831 12990 ft 427 kts 72°
2026-05-06 20:06 41.01669 16.78459 12067 ft 418 kts 72°
2026-05-06 20:07 41.02623 16.82058 11431 ft 407 kts 72°
2026-05-06 20:07 41.03543 16.85535 11009 ft 400 kts 72°
2026-05-06 20:07 41.04458 16.89001 10815 ft 398 kts 72°
2026-05-06 20:07 41.05361 16.92433 10642 ft 399 kts 72°
2026-05-06 20:08 41.06266 16.95877 10485 ft 397 kts 72°
2026-05-06 20:08 41.07181 16.99357 10308 ft 396 kts 72°
2026-05-06 20:08 41.08101 17.02734 9985 ft 396 kts 69°
2026-05-06 20:08 41.09376 17.05966 9360 ft 389 kts 54°
2026-05-06 20:09 41.11280 17.08339 9003 ft 368 kts 31°
2026-05-06 20:09 41.13537 17.09543 8863 ft 343 kts 11°
2026-05-06 20:09 41.15836 17.09770 8602 ft 324 kts 354°
2026-05-06 20:09 41.17979 17.09243 8390 ft 305 kts 341°
2026-05-06 20:10 41.19912 17.08262 8118 ft 292 kts 333°
2026-05-06 20:10 41.21614 17.06886 7731 ft 278 kts 314°
2026-05-06 20:10 41.22650 17.04862 7321 ft 266 kts 289°
2026-05-06 20:10 41.22965 17.02472 6771 ft 260 kts 268°
2026-05-06 20:11 41.22676 17.00163 6211 ft 252 kts 252°
2026-05-06 20:11 41.21911 16.98126 5726 ft 246 kts 234°
2026-05-06 20:11 41.20810 16.96366 5342 ft 249 kts 231°
2026-05-06 20:11 41.19812 16.94610 4965 ft 231 kts 237°
2026-05-06 20:12 41.19026 16.92868 4543 ft 211 kts 242°
2026-05-06 20:12 41.18373 16.91200 4050 ft 198 kts 245°
2026-05-06 20:12 41.17780 16.89538 3020 ft 215 kts 245°
2026-05-06 20:12 41.17197 16.87717 1967 ft 224 kts 248°
2026-05-06 20:13 41.16667 16.85797 1304 ft 211 kts 246°
2026-05-06 20:13 41.16161 16.84143 1159 ft 183 kts 245°
2026-05-06 20:13 41.15702 16.82632 829 ft 170 kts 247°
2026-05-06 20:13 41.15325 16.81240 673 ft 151 kts 247°
2026-05-06 20:14 41.14978 16.79997 547 ft 143 kts 246°
2026-05-06 20:14 41.14629 16.78764 392 ft 143 kts 248°
2026-05-06 20:14 41.14276 16.77529 241 ft 142 kts 245°
2026-05-06 20:14 41.13952 16.76419 197 ft 102 kts 251°
2026-05-06 20:15 41.13788 16.75833 197 ft 43 kts 247°
2026-05-06 20:15 41.13602 16.75637 197 ft 30 kts 198°
2026-05-06 20:15 41.13536 16.75704 197 ft 8 kts 60°
2026-05-06 20:15 41.13568 16.75744 197 ft 8 kts 46°
2026-05-06 20:16 41.13607 16.75846 197 ft 16 kts 70°
2026-05-06 20:16 41.13626 16.76021 197 ft 21 kts 114°
2026-05-06 20:16 41.13558 16.76172 197 ft 17 kts 81°
2026-05-06 20:16 41.13599 16.76311 197 ft 15 kts 69°
2026-05-06 20:17 41.13618 16.76433 197 ft 10 kts 122°
2026-05-06 20:17 41.13559 16.76459 197 ft 4 kts 163°
2026-05-06 20:17 41.13555 16.76461 197 ft 0 kts 160°